Weather reports worldwide

Advertisment
Hohn, Germany (10038): temperature & dewpoint: 08.07.2020 11:00:00 - 14.07.2020 11:00:00 (CEST)Hohn, Germany (10038): wind speed & gusts: 08.07.2020 11:00:00 - 14.07.2020 11:00:00 (CEST)Hohn, Germany (10038): wind direction: 08.07.2020 11:00:00 - 14.07.2020 11:00:00 (CEST)Hohn, Germany (10038): reduced air pressure: 08.07.2020 11:00:00 - 14.07.2020 11:00:00 (CEST)Hohn, Germany (10038): visibility: 08.07.2020 11:00:00 - 14.07.2020 11:00:00 (CEST)
Date & Time tt [°C] td [°C] ff [km/h] ff [kn] fx [km/h] fx [kn] dd ppp [hPa] vv [km]
14.07.2020 11:00:00 15,6 13,8 14 8 - - W 1014,2 8
14.07.2020 10:00:00 15,8 12,8 7 4 - - W 1014,3 12
14.07.2020 09:00:00 15,2 12,0 7 4 - - W 1014,4 12
14.07.2020 08:00:00 14,6 10,9 4 2 - - N 1014,5 20
14.07.2020 07:00:00 12,5 10,8 4 2 - - SSE 1014,8 20
14.07.2020 06:00:00 11,4 9,7 4 2 - - N 1015,2 20
14.07.2020 05:00:00 10,9 9,2 4 2 - - SE 1015,9 20
14.07.2020 04:00:00 10,3 8,2 4 2 - - SSE 1016,6 35
14.07.2020 03:00:00 10,8 8,9 7 4 - - SSE 1017,2 35
14.07.2020 02:00:00 10,1 8,8 7 4 - - SSE 1017,7 35
14.07.2020 01:00:00 10,1 8,9 7 4 - - SSE 1018,1 35
14.07.2020 00:00:00 11,0 9,5 4 2 - - N 1018,7 35
13.07.2020 23:00:00 11,9 9,4 4 2 - - SSE 1019,2 35
13.07.2020 22:00:00 13,7 10,0 4 2 - - S 1019,5 35
13.07.2020 21:00:00 17,4 8,8 4 2 - - W 1019,5 35
13.07.2020 20:00:00 18,7 8,2 14 8 - - W 1020,0 35
13.07.2020 19:00:00 18,6 8,2 18 10 - - W 1020,5 35
13.07.2020 18:00:00 18,2 8,1 25 14 - - W 1021,1 35
13.07.2020 17:00:00 18,8 8,7 22 12 - - W 1021,5 35
13.07.2020 16:00:00 19,8 10,1 18 10 - - WSW 1022,0 35
13.07.2020 15:00:00 19,1 9,7 22 12 - - W 1022,6 35
13.07.2020 14:00:00 19,0 10,6 18 10 - - W 1022,9 35
13.07.2020 13:00:00 18,5 9,6 22 12 - - W 1023,5 35
13.07.2020 12:00:00 17,7 8,8 22 12 - - W 1023,9 30
13.07.2020 11:00:00 18,0 9,7 25 14 - - W 1024,1 30
13.07.2020 10:00:00 15,6 10,4 18 10 - - WSW 1024,4 10
13.07.2020 09:00:00 14,7 12,2 7 4 - - N 1024,8 10
13.07.2020 08:00:00 13,8 11,4 11 6 - - SSW 1025,0 10
13.07.2020 07:00:00 11,6 10,3 4 2 - - - 1025,0 10
13.07.2020 06:00:00 9,3 8,7 4 2 - - N 1025,0 3,0
13.07.2020 05:00:00 7,2 6,4 7 4 - - S 1025,2 3,0
13.07.2020 04:00:00 7,3 6,4 7 4 - - S 1025,5 20
13.07.2020 03:00:00 8,5 7,7 4 2 - - SSW 1025,9 20
13.07.2020 02:00:00 10,1 9,3 4 2 - - SW 1026,1 20
13.07.2020 01:00:00 10,6 9,6 7 4 - - WSW 1026,3 30
13.07.2020 00:00:00 11,0 9,7 7 4 - - WSW 1026,5 30
12.07.2020 23:00:00 12,6 10,5 11 6 - - W 1026,8 30
12.07.2020 22:00:00 13,7 10,5 11 6 - - W 1026,9 30
12.07.2020 21:00:00 15,4 9,7 18 10 - - W 1026,6 30
12.07.2020 20:00:00 16,9 8,7 22 12 - - W 1026,7 30
12.07.2020 19:00:00 17,8 7,7 25 14 - - W 1026,9 30
12.07.2020 18:00:00 18,0 7,0 25 14 - - W 1027,0 30
12.07.2020 17:00:00 18,4 7,9 29 16 - - W 1027,1 30
12.07.2020 16:00:00 19,3 7,8 29 16 - - W 1027,3 30
12.07.2020 15:00:00 18,1 7,8 29 16 - - W 1027,3 30
12.07.2020 14:00:00 17,8 7,7 29 16 - - WNW 1027,0 30
12.07.2020 13:00:00 17,6 7,2 25 14 - - WNW 1027,1 30
12.07.2020 12:00:00 16,1 8,3 25 14 - - W 1027,1 30
12.07.2020 11:00:00 17,2 7,6 25 14 - - W 1026,9 30
12.07.2020 10:00:00 15,6 9,6 25 14 - - W 1026,8 30
12.07.2020 09:00:00 15,0 9,2 25 14 - - W 1026,3 30
12.07.2020 08:00:00 13,2 10,3 11 6 - - W 1026,0 30
12.07.2020 07:00:00 11,0 9,0 11 6 - - W 1025,6 25
12.07.2020 06:00:00 9,4 8,1 7 4 - - WSW 1025,3 25
12.07.2020 05:00:00 8,8 7,6 4 2 - - SW 1025,0 20
12.07.2020 04:00:00 9,0 7,7 7 4 - - WSW 1024,9 20
12.07.2020 03:00:00 8,5 7,8 4 2 - - W 1025,2 20
12.07.2020 02:00:00 8,7 7,6 7 4 - - W 1025,1 30
12.07.2020 01:00:00 9,5 8,1 7 4 - - WSW 1025,0 30
12.07.2020 00:00:00 10,3 8,5 7 4 - - W 1025,0 30
11.07.2020 23:00:00 10,5 8,5 7 4 - - WSW 1024,7 30
11.07.2020 22:00:00 12,7 8,9 11 6 - - W 1024,3 30
11.07.2020 21:00:00 14,2 9,1 14 8 - - W 1024,0 50
11.07.2020 20:00:00 15,0 8,0 25 14 - - W 1023,7 50
11.07.2020 19:00:00 16,6 8,3 29 16 - - W 1023,3 50
11.07.2020 18:00:00 17,0 9,2 29 16 - - WNW 1023,1 50
11.07.2020 17:00:00 17,4 8,7 32 18 - - W 1022,8 50
11.07.2020 16:00:00 15,3 8,9 29 16 47 25 WNW 1022,7 40
11.07.2020 15:00:00 17,1 8,1 32 18 47 25 W 1022,2 40
11.07.2020 14:00:00 17,3 8,4 36 19 - - W 1021,8 30
11.07.2020 13:00:00 14,6 10,5 25 14 50 27 WNW 1021,5 30
11.07.2020 12:00:00 15,2 9,8 29 16 - - W 1021,2 30
11.07.2020 11:00:00 14,5 9,0 29 16 - - W 1020,8 30
11.07.2020 10:00:00 15,0 9,1 29 16 - - W 1020,0 30
11.07.2020 09:00:00 13,9 9,1 15 8 - - W 1019,8 10
11.07.2020 08:00:00 13,3 10,0 7 4 - - WSW 1019,2 30
11.07.2020 07:00:00 10,4 8,7 7 4 - - WSW 1018,9 30
11.07.2020 06:00:00 10,1 8,4 7 4 - - WSW 1018,5 20
11.07.2020 05:00:00 9,7 7,9 11 6 - - WSW 1017,9 20
11.07.2020 04:00:00 9,5 7,8 11 6 - - WSW 1017,7 20
11.07.2020 03:00:00 8,1 6,4 11 6 - - W 1017,3 20
11.07.2020 02:00:00 9,3 6,5 11 6 - - W 1016,9 25
11.07.2020 01:00:00 9,0 6,9 14 8 - - W 1016,6 25
11.07.2020 00:00:00 10,1 7,2 11 6 - - W 1016,2 25
10.07.2020 23:00:00 10,9 8,3 14 8 - - W 1015,6 30
10.07.2020 22:00:00 12,1 8,5 11 6 - - W 1014,9 30
10.07.2020 21:00:00 13,5 8,3 18 10 - - WNW 1014,4 30
10.07.2020 20:00:00 14,6 8,0 29 16 - - W 1013,8 30
10.07.2020 19:00:00 15,1 8,1 29 16 47 25 W 1013,3 30
10.07.2020 18:00:00 15,5 8,8 25 14 - - WNW 1012,3 30
10.07.2020 17:00:00 15,0 10,2 7 4 - - WSW 1011,7 30
10.07.2020 16:00:00 14,6 9,0 14 8 - - WNW 1011,2 30
10.07.2020 15:00:00 12,9 10,3 14 8 - - NNW 1010,4 25
10.07.2020 14:00:00 12,2 11,1 11 6 - - NW 1009,8 12
10.07.2020 13:00:00 12,3 10,9 11 6 - - N 1009,1 4,5
10.07.2020 12:00:00 12,9 11,1 14 8 - - N 1008,3 12
10.07.2020 11:00:00 11,9 10,8 14 8 - - NNE 1007,8 12
10.07.2020 10:00:00 11,9 10,6 14 8 - - NNE 1007,7 10
10.07.2020 09:00:00 11,5 10,8 13 7 - - NE 1007,7 10
10.07.2020 08:00:00 11,4 10,8 8 4 - - NE 1007,8 4,5
10.07.2020 07:00:00 11,3 10,5 7 4 - - ENE 1008,5 10
10.07.2020 06:00:00 10,8 10,2 7 4 - - NNE 1009,2 9
10.07.2020 05:00:00 10,8 10,2 4 2 - - NNE 1009,3 15
10.07.2020 04:00:00 11,3 10,5 4 2 - - N 1009,9 30
10.07.2020 03:00:00 10,7 9,9 4 2 - - N 1010,5 30
10.07.2020 02:00:00 10,7 9,9 4 2 - - ESE 1010,7 30
10.07.2020 01:00:00 10,4 9,5 4 2 - - ESE 1011,2 30
10.07.2020 00:00:00 10,3 9,3 4 2 - - NNW 1011,6 30
09.07.2020 23:00:00 10,8 9,5 0 0 - - N 1011,5 35
09.07.2020 22:00:00 12,2 10,5 0 0 - - N 1011,8 35
09.07.2020 21:00:00 13,8 9,8 4 2 - - N 1011,6 35
09.07.2020 20:00:00 14,2 8,2 7 4 - - ENE 1011,3 35
09.07.2020 19:00:00 14,5 8,4 11 6 - - NE 1011,5 35
09.07.2020 18:00:00 15,1 7,8 11 6 - - ENE 1011,4 35
09.07.2020 17:00:00 14,2 9,1 11 6 - - NE 1011,7 35
09.07.2020 16:00:00 13,4 9,3 11 6 - - ENE 1012,1 35
09.07.2020 15:00:00 12,3 10,1 14 8 - - ENE 1012,3 25
09.07.2020 14:00:00 11,7 9,3 14 8 - - ENE 1012,4 9
09.07.2020 13:00:00 11,6 9,4 7 4 - - E 1013,0 10
09.07.2020 12:00:00 11,8 10,0 7 4 - - E 1013,0 9
09.07.2020 11:00:00 12,4 9,8 4 2 - - N 1013,5 10
09.07.2020 10:00:00 12,7 9,1 7 4 - - SE 1013,7 30
09.07.2020 09:00:00 12,6 9,2 4 2 - - ESE 1014,0 30
09.07.2020 08:00:00 11,0 9,2 7 4 - - SE 1014,5 30
09.07.2020 07:00:00 9,3 8,4 0 0 - - N 1014,7 30
09.07.2020 06:00:00 7,7 7,0 4 2 - - SSE 1014,9 30
09.07.2020 05:00:00 7,1 6,5 4 2 - - SSE 1015,0 30
09.07.2020 04:00:00 6,6 5,7 4 2 - - SSE 1015,3 30
09.07.2020 03:00:00 7,0 6,1 4 2 - - SSE 1015,6 30
09.07.2020 02:00:00 7,2 6,3 4 2 - - E 1015,6 30
09.07.2020 01:00:00 7,6 6,2 4 2 - - SW 1015,9 30
09.07.2020 00:00:00 8,9 7,3 4 2 - - SW 1016,0 30
08.07.2020 23:00:00 9,5 7,3 4 2 - - W 1015,9 30
08.07.2020 22:00:00 11,7 7,4 11 6 - - W 1015,7 30
08.07.2020 21:00:00 13,5 6,8 14 8 - - W 1015,4 30
08.07.2020 20:00:00 14,8 6,2 25 14 - - W 1015,1 30
08.07.2020 19:00:00 15,1 6,5 25 14 - - WNW 1014,9 30
08.07.2020 18:00:00 15,6 6,3 25 14 - - W 1014,9 30
08.07.2020 17:00:00 16,3 7,6 25 14 - - WNW 1014,8 30
08.07.2020 16:00:00 15,8 8,0 22 12 - - NW 1014,8 30
08.07.2020 15:00:00 16,0 7,3 22 12 - - WNW 1014,6 30
08.07.2020 14:00:00 17,1 7,2 29 16 - - WNW 1014,2 30
08.07.2020 13:00:00 16,3 8,6 22 12 - - W 1014,0 30
08.07.2020 12:00:00 15,6 8,2 25 14 - - W 1013,8 30
08.07.2020 11:00:00 16,2 9,0 22 12 - - W 1013,5 30

tt = temperature
td = dewpoint
ff = wind speed
fx = gusts
dd = wind direction
ppp = reduced air pressure
vv = visibility

Next stations